Time,TemperatureF,DewpointF,PressureIn,WindDirection,WindDirectionDegrees,WindSpeedMPH,WindSpeedGustMPH,Humidity,HourlyPrecipIn,Conditions,Clouds,dailyrainin,SoftwareType,DateUTC
2013-05-08 00:05:00,43.9,-99.9,28.83,East,90,0.0,-999.0,-999,-99.99,,,-99.99,,2013-05-07 23:05:00,
2013-05-08 00:11:00,43.6,-99.9,28.83,East,90,0.0,-999.0,-999,-99.99,,,-99.99,,2013-05-07 23:11:00,
2013-05-08 00:18:00,43.1,-99.9,28.83,East,90,0.0,-999.0,-999,-99.99,,,-99.99,,2013-05-07 23:18:00,
2013-05-08 00:24:00,43.6,-99.9,28.83,South,180,6.0,-999.0,-999,-99.99,,,-99.99,,2013-05-07 23:24:00,
2013-05-08 00:30:00,45.5,-99.9,28.82,West,270,3.0,-999.0,-999,-99.99,,,-99.99,,2013-05-07 23:30:00,
2013-05-08 00:37:00,46.7,-99.9,28.82,SSE,157,0.0,-999.0,-999,-99.99,,,-99.99,,2013-05-07 23:37:00,
2013-05-08 00:43:00,46.6,-99.9,28.82,SW,225,2.0,-999.0,-999,-99.99,,,-99.99,,2013-05-07 23:43:00,
2013-05-08 00:49:00,46.6,-99.9,28.82,West,270,4.0,-999.0,-999,-99.99,,,-99.99,,2013-05-07 23:49:00,
2013-05-08 00:56:00,46.8,-99.9,28.81,WSW,247,5.0,-999.0,-999,-99.99,,,-99.99,,2013-05-07 23:56:00,
2013-05-08 01:02:00,46.8,-99.9,28.81,SW,225,2.0,-999.0,-999,-99.99,,,-99.99,,2013-05-08 00:02:00,
2013-05-08 01:08:00,46.6,-99.9,28.80,SE,135,2.0,-999.0,-999,-99.99,,,-99.99,,2013-05-08 00:08:00,
2013-05-08 01:14:00,46.4,-99.9,28.80,SE,135,0.0,-999.0,-999,-99.99,,,-99.99,,2013-05-08 00:14:00,
2013-05-08 01:21:00,45.5,-99.9,28.80,SE,135,-999.0,-999.0,-999,-99.99,,,-99.99,,2013-05-08 00:21:00,
2013-05-08 01:27:00,44.5,-99.9,28.80,SW,225,0.0,-999.0,-999,-99.99,,,-99.99,,2013-05-08 00:27:00,
2013-05-08 01:33:00,44.3,-99.9,28.79,SSE,157,4.0,-999.0,-999,-99.99,,,-99.99,,2013-05-08 00:33:00,
2013-05-08 01:39:00,44.3,-99.9,28.79,South,180,0.0,-999.0,-999,-99.99,,,-99.99,,2013-05-08 00:39:00,
2013-05-08 01:45:00,44.4,-99.9,28.79,ESE,112,3.0,-999.0,-999,-99.99,,,-99.99,,2013-05-08 00:45:00,
2013-05-08 01:52:00,44.6,-99.9,28.79,ENE,67,0.0,-999.0,-999,-99.99,,,-99.99,,2013-05-08 00:52:00,
2013-05-08 01:58:00,44.4,-99.9,28.78,WSW,247,1.0,-999.0,-999,-99.99,,,-99.99,,2013-05-08 00:58:00,
2013-05-08 02:04:00,45.0,-99.9,28.78,WSW,247,3.0,-999.0,-999,-99.99,,,-99.99,,2013-05-08 01:04:00,
2013-05-08 02:10:00,45.4,-99.9,28.78,WNW,292,2.0,-999.0,-999,-99.99,,,-99.99,,2013-05-08 01:10:00,
2013-05-08 02:17:00,45.0,-99.9,28.77,WNW,292,1.0,-999.0,-999,-99.99,,,-99.99,,2013-05-08 01:17:00,
2013-05-08 02:23:00,45.0,-99.9,28.77,NW,315,3.0,-999.0,-999,-99.99,,,-99.99,,2013-05-08 01:23:00,
2013-05-08 02:29:00,45.0,-99.9,28.77,West,270,5.0,-999.0,-999,-99.99,,,-99.99,,2013-05-08 01:29:00,
2013-05-08 02:35:00,45.4,-99.9,28.77,SE,135,6.0,-999.0,-999,-99.99,,,-99.99,,2013-05-08 01:35:00,
2013-05-08 02:42:00,45.8,-99.9,28.77,SE,135,5.0,-999.0,-999,-99.99,,,-99.99,,2013-05-08 01:42:00,
2013-05-08 02:48:00,46.2,-99.9,28.77,South,180,4.0,-999.0,-999,-99.99,,,-99.99,,2013-05-08 01:48:00,
2013-05-08 02:54:00,46.4,-99.9,28.77,SSE,157,4.0,-999.0,-999,-99.99,,,-99.99,,2013-05-08 01:54:00,
2013-05-08 03:00:00,46.3,-99.9,28.76,SE,135,5.0,-999.0,-999,-99.99,,,-99.99,,2013-05-08 02:00:00,
2013-05-08 03:06:00,46.7,-99.9,28.76,SW,225,9.0,-999.0,-999,-99.99,,,-99.99,,2013-05-08 02:06:00,
2013-05-08 03:13:00,47.8,-99.9,28.76,West,270,8.0,-999.0,-999,-99.99,,,-99.99,,2013-05-08 02:13:00,
2013-05-08 03:20:00,48.1,-99.9,28.75,WNW,292,-999.0,-999.0,-999,-99.99,,,-99.99,,2013-05-08 02:20:00,
2013-05-08 03:26:00,48.4,-99.9,28.75,WSW,247,6.0,-999.0,-999,-99.99,,,-99.99,,2013-05-08 02:26:00,
2013-05-08 03:32:00,48.4,-99.9,28.75,SSW,202,5.0,-999.0,-999,-99.99,,,-99.99,,2013-05-08 02:32:00,
2013-05-08 03:38:00,48.7,-99.9,28.74,West,270,6.0,-999.0,-999,-99.99,,,-99.99,,2013-05-08 02:38:00,
2013-05-08 03:45:00,48.9,-99.9,28.74,WNW,292,3.0,-999.0,-999,-99.99,,,-99.99,,2013-05-08 02:45:00,
2013-05-08 03:51:00,49.0,-99.9,28.74,WSW,247,6.0,-999.0,-999,-99.99,,,-99.99,,2013-05-08 02:51:00,
2013-05-08 03:57:00,49.4,-99.9,28.73,West,270,11.0,-999.0,-999,-99.99,,,-99.99,,2013-05-08 02:57:00,
2013-05-08 04:03:00,50.2,-99.9,28.73,WSW,247,4.0,-999.0,-999,-99.99,,,-99.99,,2013-05-08 03:03:00,
2013-05-08 04:10:00,50.2,-99.9,28.73,SW,225,3.0,-999.0,-999,-99.99,,,-99.99,,2013-05-08 03:10:00,
2013-05-08 04:16:00,50.2,-99.9,28.72,ESE,112,1.0,-999.0,-999,-99.99,,,-99.99,,2013-05-08 03:16:00,
2013-05-08 04:22:00,50.1,-99.9,28.72,ESE,112,7.0,-999.0,-999,-99.99,,,-99.99,,2013-05-08 03:22:00,
2013-05-08 04:28:00,50.2,-99.9,28.72,South,180,0.0,-999.0,-999,-99.99,,,-99.99,,2013-05-08 03:28:00,
2013-05-08 04:35:00,50.0,-99.9,28.71,SSW,202,1.0,-999.0,-999,-99.99,,,-99.99,,2013-05-08 03:35:00,
2013-05-08 04:40:00,49.8,-99.9,28.71,SSW,202,-999.0,-999.0,-999,-99.99,,,-99.99,,2013-05-08 03:40:00,
2013-05-08 04:46:00,49.4,-99.9,28.71,ENE,67,2.0,-999.0,-999,-99.99,,,-99.99,,2013-05-08 03:46:00,
2013-05-08 04:52:00,49.3,-99.9,28.70,ENE,67,1.0,-999.0,-999,-99.99,,,-99.99,,2013-05-08 03:52:00,
2013-05-08 04:58:00,49.5,-99.9,28.70,NE,45,6.0,-999.0,-999,-99.99,,,-99.99,,2013-05-08 03:58:00,
2013-05-08 05:02:00,49.7,-99.9,28.70,NNW,337,4.0,-999.0,-999,-99.99,,,-99.99,,2013-05-08 04:02:00,
2013-05-08 05:07:00,49.8,-99.9,28.70,ENE,67,5.0,-999.0,-999,-99.99,,,-99.99,,2013-05-08 04:07:00,
2013-05-08 05:11:00,49.5,-99.9,28.70,ESE,112,3.0,-999.0,-999,-99.99,,,-99.99,,2013-05-08 04:11:00,
2013-05-08 05:17:00,49.1,-99.9,28.70,NE,45,3.0,-999.0,-999,-99.99,,,-99.99,,2013-05-08 04:17:00,
2013-05-08 05:23:00,48.9,-99.9,28.69,NNW,337,5.0,-999.0,-999,-99.99,,,-99.99,,2013-05-08 04:23:00,
2013-05-08 05:29:00,48.8,-99.9,28.69,SE,135,4.0,-999.0,-999,-99.99,,,-99.99,,2013-05-08 04:29:00,
2013-05-08 05:34:00,48.8,-99.9,28.68,SW,225,3.0,-999.0,-999,-99.99,,,-99.99,,2013-05-08 04:34:00,
2013-05-08 05:40:00,48.7,-99.9,28.68,North,0,3.0,-999.0,-999,-99.99,,,-99.99,,2013-05-08 04:40:00,
2013-05-08 05:46:00,48.7,-99.9,28.68,NNE,22,1.0,-999.0,-999,-99.99,,,-99.99,,2013-05-08 04:46:00,
2013-05-08 05:52:00,48.7,-99.9,28.68,NE,45,1.0,-999.0,-999,-99.99,,,-99.99,,2013-05-08 04:52:00,
2013-05-08 05:59:00,48.5,-99.9,28.68,NE,45,2.0,-999.0,-999,-99.99,,,-99.99,,2013-05-08 04:59:00,
2013-05-08 06:05:00,48.0,-99.9,28.67,SSW,202,4.0,-999.0,-999,-99.99,,,-99.99,,2013-05-08 05:05:00,
2013-05-08 06:11:00,47.8,-99.9,28.67,SW,225,6.0,-999.0,-999,-99.99,,,-99.99,,2013-05-08 05:11:00,
2013-05-08 06:18:00,47.5,-99.9,28.67,East,90,3.0,-999.0,-999,-99.99,,,-99.99,,2013-05-08 05:18:00,
2013-05-08 06:24:00,47.4,-99.9,28.67,SW,225,2.0,-999.0,-999,-99.99,,,-99.99,,2013-05-08 05:24:00,
2013-05-08 06:30:00,47.6,-99.9,28.67,ESE,112,3.0,-999.0,-999,-99.99,,,-99.99,,2013-05-08 05:30:00,
2013-05-08 06:37:00,47.6,-99.9,28.66,SE,135,3.0,-999.0,-999,-99.99,,,-99.99,,2013-05-08 05:37:00,
2013-05-08 06:43:00,48.0,-99.9,28.66,ESE,112,3.0,-999.0,-999,-99.99,,,-99.99,,2013-05-08 05:43:00,
2013-05-08 06:49:00,48.2,-99.9,28.66,ESE,112,3.0,-999.0,-999,-99.99,,,-99.99,,2013-05-08 05:49:00,
2013-05-08 06:55:00,48.7,-99.9,28.65,ENE,67,5.0,-999.0,-999,-99.99,,,-99.99,,2013-05-08 05:55:00,
2013-05-08 07:01:00,49.1,-99.9,28.65,WSW,247,1.0,-999.0,-999,-99.99,,,-99.99,,2013-05-08 06:01:00,
2013-05-08 07:08:00,49.5,-99.9,28.64,East,90,0.0,-999.0,-999,-99.99,,,-99.99,,2013-05-08 06:08:00,
2013-05-08 07:14:00,50.0,-99.9,28.64,SE,135,3.0,-999.0,-999,-99.99,,,-99.99,,2013-05-08 06:14:00,
2013-05-08 07:21:00,50.8,-99.9,28.64,SSE,157,-999.0,-999.0,-999,-99.99,,,-99.99,,2013-05-08 06:21:00,
2013-05-08 07:27:00,51.3,-99.9,28.63,ENE,67,10.0,-999.0,-999,-99.99,,,-99.99,,2013-05-08 06:27:00,
2013-05-08 07:33:00,51.9,-99.9,28.63,South,180,6.0,-999.0,-999,-99.99,,,-99.99,,2013-05-08 06:33:00,
2013-05-08 07:39:00,52.4,-99.9,28.63,SSW,202,8.0,-999.0,-999,-99.99,,,-99.99,,2013-05-08 06:39:00,
2013-05-08 07:46:00,53.4,-99.9,28.63,SW,225,10.0,-999.0,-999,-99.99,,,-99.99,,2013-05-08 06:46:00,
2013-05-08 07:53:00,55.2,-99.9,28.63,West,270,12.0,-999.0,-999,-99.99,,,-99.99,,2013-05-08 06:53:00,
2013-05-08 07:59:00,56.1,-99.9,28.62,SSW,202,15.0,-999.0,-999,-99.99,,,-99.99,,2013-05-08 06:59:00,
2013-05-08 08:05:00,56.5,-99.9,28.62,SW,225,16.0,-999.0,-999,-99.99,,,-99.99,,2013-05-08 07:05:00,
2013-05-08 08:11:00,56.9,-99.9,28.62,WSW,247,17.0,-999.0,-999,-99.99,,,-99.99,,2013-05-08 07:11:00,
2013-05-08 08:18:00,57.1,-99.9,28.62,WSW,247,23.0,-999.0,-999,-99.99,,,-99.99,,2013-05-08 07:18:00,
2013-05-08 08:25:00,57.3,-99.9,28.61,SW,225,14.0,-999.0,-999,-99.99,,,-99.99,,2013-05-08 07:25:00,
2013-05-08 08:31:00,57.8,-99.9,28.61,WSW,247,20.0,-999.0,-999,-99.99,,,-99.99,,2013-05-08 07:31:00,
2013-05-08 08:37:00,58.1,-99.9,28.61,SSW,202,16.0,-999.0,-999,-99.99,,,-99.99,,2013-05-08 07:37:00,
2013-05-08 08:43:00,58.4,-99.9,28.61,SW,225,24.0,-999.0,-999,-99.99,,,-99.99,,2013-05-08 07:43:00,
2013-05-08 08:50:00,58.4,-99.9,28.61,SSW,202,18.0,-999.0,-999,-99.99,,,-99.99,,2013-05-08 07:50:00,
2013-05-08 08:56:00,58.7,-99.9,28.60,SE,135,21.0,-999.0,-999,-99.99,,,-99.99,,2013-05-08 07:56:00,
2013-05-08 09:02:00,59.0,-99.9,28.60,WSW,247,17.0,-999.0,-999,-99.99,,,-99.99,,2013-05-08 08:02:00,
2013-05-08 09:08:00,59.1,-99.9,28.60,South,180,17.0,-999.0,-999,-99.99,,,-99.99,,2013-05-08 08:08:00,
2013-05-08 09:15:00,59.2,-99.9,28.59,WSW,247,20.0,-999.0,-999,-99.99,,,-99.99,,2013-05-08 08:15:00,
2013-05-08 09:21:00,59.0,-99.9,28.59,WSW,247,21.0,-999.0,-999,-99.99,,,-99.99,,2013-05-08 08:21:00,
2013-05-08 09:28:00,58.8,-99.9,28.59,SW,225,16.0,-999.0,-999,-99.99,,,-99.99,,2013-05-08 08:28:00,
2013-05-08 09:35:00,58.8,-99.9,28.59,WSW,247,-999.0,-999.0,-999,-99.99,,,-99.99,,2013-05-08 08:35:00,
2013-05-08 09:40:00,58.8,-99.9,28.59,SW,225,14.0,-999.0,-999,-99.99,,,-99.99,,2013-05-08 08:40:00,
2013-05-08 09:46:00,58.9,-99.9,28.58,SW,225,20.0,-999.0,-999,-99.99,,,-99.99,,2013-05-08 08:46:00,
2013-05-08 09:52:00,59.0,-99.9,28.58,SW,225,16.0,-999.0,-999,-99.99,,,-99.99,,2013-05-08 08:52:00,
2013-05-08 09:58:00,59.8,-99.9,28.58,WSW,247,18.0,-999.0,-999,-99.99,,,-99.99,,2013-05-08 08:58:00,
2013-05-08 10:05:00,60.2,-99.9,28.57,WSW,247,21.0,-999.0,-999,-99.99,,,-99.99,,2013-05-08 09:05:00,
2013-05-08 10:12:00,60.6,-99.9,28.58,WSW,247,23.0,-999.0,-999,-99.99,,,-99.99,,2013-05-08 09:12:00,
2013-05-08 10:18:00,60.2,-99.9,28.58,ESE,112,27.0,-999.0,-999,-99.99,,,-99.99,,2013-05-08 09:18:00,
2013-05-08 10:24:00,60.1,-99.9,28.57,SSW,202,25.0,-999.0,-999,-99.99,,,-99.99,,2013-05-08 09:24:00,
2013-05-08 10:30:00,61.2,-99.9,28.57,South,180,21.0,-999.0,-999,-99.99,,,-99.99,,2013-05-08 09:30:00,
2013-05-08 10:37:00,60.9,-99.9,28.57,SSE,157,25.0,-999.0,-999,-99.99,,,-99.99,,2013-05-08 09:37:00,
2013-05-08 10:43:00,60.6,-99.9,28.57,SW,225,21.0,-999.0,-999,-99.99,,,-99.99,,2013-05-08 09:43:00,
2013-05-08 10:49:00,60.5,-99.9,28.57,SW,225,25.0,-999.0,-999,-99.99,,,-99.99,,2013-05-08 09:49:00,
2013-05-08 10:56:00,58.9,-99.9,28.57,WSW,247,18.0,-999.0,-999,-99.99,,,-99.99,,2013-05-08 09:56:00,
2013-05-08 11:01:00,58.3,-99.9,28.57,South,180,-999.0,-999.0,-999,-99.99,,,-99.99,,2013-05-08 10:01:00,
2013-05-08 11:07:00,57.0,-99.9,28.56,South,180,17.0,-999.0,-999,-99.99,,,-99.99,,2013-05-08 10:07:00,
2013-05-08 11:14:00,55.4,-99.9,28.56,SW,225,-999.0,-999.0,-999,-99.99,,,-99.99,,2013-05-08 10:14:00,
2013-05-08 11:20:00,54.5,-99.9,28.55,SSE,157,17.0,-999.0,-999,-99.99,,,-99.99,,2013-05-08 10:20:00,
2013-05-08 11:26:00,53.9,-99.9,28.55,SSW,202,12.0,-999.0,-999,-99.99,,,-99.99,,2013-05-08 10:26:00,
2013-05-08 11:32:00,53.7,-99.9,28.55,SSE,157,13.0,-999.0,-999,-99.99,,,-99.99,,2013-05-08 10:32:00,
2013-05-08 11:39:00,53.4,-99.9,28.54,SSW,202,13.0,-999.0,-999,-99.99,,,-99.99,,2013-05-08 10:39:00,
2013-05-08 11:45:00,53.4,-99.9,28.54,SSW,202,17.0,-999.0,-999,-99.99,,,-99.99,,2013-05-08 10:45:00,
2013-05-08 11:51:00,53.5,-99.9,28.53,West,270,15.0,-999.0,-999,-99.99,,,-99.99,,2013-05-08 10:51:00,
2013-05-08 11:57:00,53.7,-99.9,28.53,SSE,157,16.0,-999.0,-999,-99.99,,,-99.99,,2013-05-08 10:57:00,
2013-05-08 12:04:00,53.9,-99.9,28.52,South,180,16.0,-999.0,-999,-99.99,,,-99.99,,2013-05-08 11:04:00,
2013-05-08 12:10:00,54.0,-99.9,28.52,South,180,17.0,-999.0,-999,-99.99,,,-99.99,,2013-05-08 11:10:00,
2013-05-08 12:16:00,53.8,-99.9,28.52,SSW,202,17.0,-999.0,-999,-99.99,,,-99.99,,2013-05-08 11:16:00,
2013-05-08 12:22:00,54.2,-99.9,28.52,SW,225,21.0,-999.0,-999,-99.99,,,-99.99,,2013-05-08 11:22:00,
2013-05-08 12:29:00,54.6,-99.9,28.51,SW,225,18.0,-999.0,-999,-99.99,,,-99.99,,2013-05-08 11:29:00,
2013-05-08 12:35:00,55.0,-99.9,28.51,SW,225,19.0,-999.0,-999,-99.99,,,-99.99,,2013-05-08 11:35:00,
2013-05-08 12:41:00,55.2,-99.9,28.51,SW,225,18.0,-999.0,-999,-99.99,,,-99.99,,2013-05-08 11:41:00,
2013-05-08 12:47:00,54.6,-99.9,28.51,SSW,202,16.0,-999.0,-999,-99.99,,,-99.99,,2013-05-08 11:47:00,
2013-05-08 12:54:00,53.9,-99.9,28.51,WSW,247,15.0,-999.0,-999,-99.99,,,-99.99,,2013-05-08 11:54:00,
2013-05-08 13:00:00,53.2,-99.9,28.51,SSW,202,18.0,-999.0,-999,-99.99,,,-99.99,,2013-05-08 12:00:00,
2013-05-08 13:07:00,52.4,-99.9,28.51,SW,225,14.0,-999.0,-999,-99.99,,,-99.99,,2013-05-08 12:07:00,
2013-05-08 13:14:00,52.2,-99.9,28.51,WSW,247,-999.0,-999.0,-999,-99.99,,,-99.99,,2013-05-08 12:14:00,
2013-05-08 13:19:00,52.0,-99.9,28.51,SSE,157,-999.0,-999.0,-999,-99.99,,,-99.99,,2013-05-08 12:19:00,
2013-05-08 13:25:00,51.9,-99.9,28.50,WSW,247,13.0,-999.0,-999,-99.99,,,-99.99,,2013-05-08 12:25:00,
2013-05-08 13:31:00,51.9,-99.9,28.50,SSW,202,15.0,-999.0,-999,-99.99,,,-99.99,,2013-05-08 12:31:00,
2013-05-08 13:37:00,52.0,-99.9,28.50,WSW,247,11.0,-999.0,-999,-99.99,,,-99.99,,2013-05-08 12:37:00,
2013-05-08 13:44:00,52.0,-99.9,28.50,SSW,202,13.0,-999.0,-999,-99.99,,,-99.99,,2013-05-08 12:44:00,
2013-05-08 13:50:00,52.6,-99.9,28.50,SSW,202,16.0,-999.0,-999,-99.99,,,-99.99,,2013-05-08 12:50:00,
2013-05-08 13:57:00,52.8,-99.9,28.49,South,180,-999.0,-999.0,-999,-99.99,,,-99.99,,2013-05-08 12:57:00,
2013-05-08 14:02:00,53.2,-99.9,28.49,SW,225,-999.0,-999.0,-999,-99.99,,,-99.99,,2013-05-08 13:02:00,
2013-05-08 14:08:00,53.3,-99.9,28.49,SW,225,14.0,-999.0,-999,-99.99,,,-99.99,,2013-05-08 13:08:00,
2013-05-08 14:14:00,53.5,-99.9,28.49,SSW,202,14.0,-999.0,-999,-99.99,,,-99.99,,2013-05-08 13:14:00,
2013-05-08 14:20:00,53.4,-99.9,28.49,SW,225,17.0,-999.0,-999,-99.99,,,-99.99,,2013-05-08 13:20:00,
2013-05-08 14:27:00,52.8,-99.9,28.49,West,270,11.0,-999.0,-999,-99.99,,,-99.99,,2013-05-08 13:27:00,
2013-05-08 14:32:00,52.2,-99.9,28.48,SSW,202,11.0,-999.0,-999,-99.99,,,-99.99,,2013-05-08 13:32:00,
2013-05-08 14:39:00,51.9,-99.9,28.48,SW,225,-999.0,-999.0,-999,-99.99,,,-99.99,,2013-05-08 13:39:00,
2013-05-08 14:45:00,52.2,-99.9,28.48,SW,225,14.0,-999.0,-999,-99.99,,,-99.99,,2013-05-08 13:45:00,
2013-05-08 14:52:00,52.5,-99.9,28.47,SW,225,13.0,-999.0,-999,-99.99,,,-99.99,,2013-05-08 13:52:00,
2013-05-08 14:58:00,52.5,-99.9,28.47,SW,225,13.0,-999.0,-999,-99.99,,,-99.99,,2013-05-08 13:58:00,
2013-05-08 15:05:00,52.4,-99.9,28.47,SW,225,10.0,-999.0,-999,-99.99,,,-99.99,,2013-05-08 14:05:00,
2013-05-08 15:11:00,52.5,-99.9,28.47,SE,135,10.0,-999.0,-999,-99.99,,,-99.99,,2013-05-08 14:11:00,
2013-05-08 15:17:00,52.5,-99.9,28.47,SSW,202,13.0,-999.0,-999,-99.99,,,-99.99,,2013-05-08 14:17:00,
2013-05-08 15:24:00,52.5,-99.9,28.47,SE,135,10.0,-999.0,-999,-99.99,,,-99.99,,2013-05-08 14:24:00,
2013-05-08 15:30:00,52.4,-99.9,28.47,SW,225,8.0,-999.0,-999,-99.99,,,-99.99,,2013-05-08 14:30:00,
2013-05-08 15:36:00,51.7,-99.9,28.48,West,270,6.0,-999.0,-999,-99.99,,,-99.99,,2013-05-08 14:36:00,
2013-05-08 15:42:00,51.1,-99.9,28.48,WNW,292,8.0,-999.0,-999,-99.99,,,-99.99,,2013-05-08 14:42:00,
2013-05-08 15:48:00,50.8,-99.9,28.48,WSW,247,7.0,-999.0,-999,-99.99,,,-99.99,,2013-05-08 14:48:00,
2013-05-08 15:55:00,50.6,-99.9,28.48,North,0,5.0,-999.0,-999,-99.99,,,-99.99,,2013-05-08 14:55:00,
2013-05-08 16:01:00,50.7,-99.9,28.48,West,270,12.0,-999.0,-999,-99.99,,,-99.99,,2013-05-08 15:01:00,
2013-05-08 16:07:00,50.5,-99.9,28.48,WSW,247,12.0,-999.0,-999,-99.99,,,-99.99,,2013-05-08 15:07:00,
2013-05-08 16:13:00,50.2,-99.9,28.48,West,270,8.0,-999.0,-999,-99.99,,,-99.99,,2013-05-08 15:13:00,
2013-05-08 16:20:00,50.1,-99.9,28.48,SW,225,14.0,-999.0,-999,-99.99,,,-99.99,,2013-05-08 15:20:00,
2013-05-08 16:26:00,50.0,-99.9,28.48,West,270,-999.0,-999.0,-999,-99.99,,,-99.99,,2013-05-08 15:26:00,
2013-05-08 16:32:00,50.2,-99.9,28.48,West,270,9.0,-999.0,-999,-99.99,,,-99.99,,2013-05-08 15:32:00,
2013-05-08 16:38:00,50.8,-99.9,28.48,SW,225,10.0,-999.0,-999,-99.99,,,-99.99,,2013-05-08 15:38:00,
2013-05-08 16:44:00,50.9,-99.9,28.48,WNW,292,11.0,-999.0,-999,-99.99,,,-99.99,,2013-05-08 15:44:00,
2013-05-08 16:51:00,50.5,-99.9,28.48,WSW,247,10.0,-999.0,-999,-99.99,,,-99.99,,2013-05-08 15:51:00,
2013-05-08 16:57:00,50.5,-99.9,28.48,WSW,247,13.0,-999.0,-999,-99.99,,,-99.99,,2013-05-08 15:57:00,
2013-05-08 17:03:00,50.6,-99.9,28.48,WSW,247,9.0,-999.0,-999,-99.99,,,-99.99,,2013-05-08 16:03:00,
2013-05-08 17:09:00,50.7,-99.9,28.48,West,270,11.0,-999.0,-999,-99.99,,,-99.99,,2013-05-08 16:09:00,
2013-05-08 17:16:00,50.8,-99.9,28.48,SW,225,14.0,-999.0,-999,-99.99,,,-99.99,,2013-05-08 16:16:00,
2013-05-08 17:23:00,50.8,-99.9,28.48,West,270,-999.0,-999.0,-999,-99.99,,,-99.99,,2013-05-08 16:23:00,
2013-05-08 17:29:00,50.9,-99.9,28.48,WSW,247,7.0,-999.0,-999,-99.99,,,-99.99,,2013-05-08 16:29:00,
2013-05-08 17:35:00,50.8,-99.9,28.47,WNW,292,6.0,-999.0,-999,-99.99,,,-99.99,,2013-05-08 16:35:00,
2013-05-08 17:41:00,50.6,-99.9,28.47,West,270,12.0,-999.0,-999,-99.99,,,-99.99,,2013-05-08 16:41:00,
2013-05-08 17:48:00,50.2,-99.9,28.47,WSW,247,8.0,-999.0,-999,-99.99,,,-99.99,,2013-05-08 16:48:00,
2013-05-08 17:54:00,50.3,-99.9,28.47,NW,315,10.0,-999.0,-999,-99.99,,,-99.99,,2013-05-08 16:54:00,
2013-05-08 18:00:00,50.3,-99.9,28.46,WSW,247,8.0,-999.0,-999,-99.99,,,-99.99,,2013-05-08 17:00:00,
2013-05-08 18:06:00,50.3,-99.9,28.46,West,270,9.0,-999.0,-999,-99.99,,,-99.99,,2013-05-08 17:06:00,
2013-05-08 18:13:00,50.5,-99.9,28.46,WSW,247,9.0,-999.0,-999,-99.99,,,-99.99,,2013-05-08 17:13:00,
2013-05-08 18:20:00,50.2,-99.9,28.46,West,270,-999.0,-999.0,-999,-99.99,,,-99.99,,2013-05-08 17:20:00,
2013-05-08 18:26:00,50.2,-99.9,28.46,SW,225,9.0,-999.0,-999,-99.99,,,-99.99,,2013-05-08 17:26:00,
2013-05-08 18:32:00,50.2,-99.9,28.46,SW,225,12.0,-999.0,-999,-99.99,,,-99.99,,2013-05-08 17:32:00,
2013-05-08 18:38:00,49.9,-99.9,28.46,West,270,11.0,-999.0,-999,-99.99,,,-99.99,,2013-05-08 17:38:00,
2013-05-08 18:45:00,49.9,-99.9,28.46,WSW,247,15.0,-999.0,-999,-99.99,,,-99.99,,2013-05-08 17:45:00,
2013-05-08 18:51:00,49.8,-99.9,28.47,WSW,247,13.0,-999.0,-999,-99.99,,,-99.99,,2013-05-08 17:51:00,
2013-05-08 18:57:00,49.8,-99.9,28.47,NW,315,12.0,-999.0,-999,-99.99,,,-99.99,,2013-05-08 17:57:00,
2013-05-08 19:03:00,49.7,-99.9,28.47,WSW,247,14.0,-999.0,-999,-99.99,,,-99.99,,2013-05-08 18:03:00,
2013-05-08 19:10:00,49.5,-99.9,28.47,SSW,202,14.0,-999.0,-999,-99.99,,,-99.99,,2013-05-08 18:10:00,
2013-05-08 19:17:00,49.7,-99.9,28.47,NW,315,-999.0,-999.0,-999,-99.99,,,-99.99,,2013-05-08 18:17:00,
2013-05-08 19:23:00,49.8,-99.9,28.47,WNW,292,11.0,-999.0,-999,-99.99,,,-99.99,,2013-05-08 18:23:00,
2013-05-08 19:30:00,49.7,-99.9,28.47,NW,315,16.0,-999.0,-999,-99.99,,,-99.99,,2013-05-08 18:30:00,
2013-05-08 19:36:00,49.3,-99.9,28.47,WSW,247,16.0,-999.0,-999,-99.99,,,-99.99,,2013-05-08 18:36:00,
2013-05-08 19:42:00,49.0,-99.9,28.47,West,270,12.0,-999.0,-999,-99.99,,,-99.99,,2013-05-08 18:42:00,
2013-05-08 19:49:00,48.7,-99.9,28.47,West,270,-999.0,-999.0,-999,-99.99,,,-99.99,,2013-05-08 18:49:00,
2013-05-08 19:56:00,48.2,-99.9,28.47,WNW,292,-999.0,-999.0,-999,-99.99,,,-99.99,,2013-05-08 18:56:00,
2013-05-08 20:02:00,48.0,-99.9,28.47,West,270,15.0,-999.0,-999,-99.99,,,-99.99,,2013-05-08 19:02:00,
2013-05-08 20:08:00,47.8,-99.9,28.47,West,270,16.0,-999.0,-999,-99.99,,,-99.99,,2013-05-08 19:08:00,
2013-05-08 20:14:00,47.4,-99.9,28.47,WNW,292,14.0,-999.0,-999,-99.99,,,-99.99,,2013-05-08 19:14:00,
2013-05-08 20:21:00,47.2,-99.9,28.47,West,270,16.0,-999.0,-999,-99.99,,,-99.99,,2013-05-08 19:21:00,
2013-05-08 20:27:00,47.0,-99.9,28.47,West,270,14.0,-999.0,-999,-99.99,,,-99.99,,2013-05-08 19:27:00,
2013-05-08 20:33:00,46.7,-99.9,28.47,WNW,292,19.0,-999.0,-999,-99.99,,,-99.99,,2013-05-08 19:33:00,
2013-05-08 20:39:00,46.5,-99.9,28.48,West,270,13.0,-999.0,-999,-99.99,,,-99.99,,2013-05-08 19:39:00,
2013-05-08 20:46:00,46.1,-99.9,28.48,WSW,247,11.0,-999.0,-999,-99.99,,,-99.99,,2013-05-08 19:46:00,
2013-05-08 20:52:00,45.6,-99.9,28.48,West,270,13.0,-999.0,-999,-99.99,,,-99.99,,2013-05-08 19:52:00,
2013-05-08 20:58:00,45.4,-99.9,28.48,SW,225,7.0,-999.0,-999,-99.99,,,-99.99,,2013-05-08 19:58:00,
2013-05-08 21:04:00,45.2,-99.9,28.48,NW,315,12.0,-999.0,-999,-99.99,,,-99.99,,2013-05-08 20:04:00,
2013-05-08 21:11:00,45.3,-99.9,28.48,SW,225,7.0,-999.0,-999,-99.99,,,-99.99,,2013-05-08 20:11:00,
2013-05-08 21:16:00,45.0,-99.9,28.48,WSW,247,8.0,-999.0,-999,-99.99,,,-99.99,,2013-05-08 20:16:00,
2013-05-08 21:22:00,44.7,-99.9,28.48,WSW,247,8.0,-999.0,-999,-99.99,,,-99.99,,2013-05-08 20:22:00,
2013-05-08 21:28:00,44.3,-99.9,28.48,West,270,9.0,-999.0,-999,-99.99,,,-99.99,,2013-05-08 20:28:00,
2013-05-08 21:35:00,43.9,-99.9,28.48,SW,225,5.0,-999.0,-999,-99.99,,,-99.99,,2013-05-08 20:35:00,
2013-05-08 21:41:00,43.2,-99.9,28.48,NNW,337,6.0,-999.0,-999,-99.99,,,-99.99,,2013-05-08 20:41:00,
2013-05-08 21:47:00,42.8,-99.9,28.48,WNW,292,5.0,-999.0,-999,-99.99,,,-99.99,,2013-05-08 20:47:00,
2013-05-08 21:53:00,42.3,-99.9,28.48,West,270,5.0,-999.0,-999,-99.99,,,-99.99,,2013-05-08 20:53:00,
2013-05-08 22:00:00,42.2,-99.9,28.49,West,270,4.0,-999.0,-999,-99.99,,,-99.99,,2013-05-08 21:00:00,
2013-05-08 22:06:00,42.8,-99.9,28.49,WSW,247,7.0,-999.0,-999,-99.99,,,-99.99,,2013-05-08 21:06:00,
2013-05-08 22:12:00,43.2,-99.9,28.49,West,270,5.0,-999.0,-999,-99.99,,,-99.99,,2013-05-08 21:12:00,
2013-05-08 22:18:00,43.8,-99.9,28.49,NW,315,9.0,-999.0,-999,-99.99,,,-99.99,,2013-05-08 21:18:00,
2013-05-08 22:24:00,44.0,-99.9,28.49,West,270,10.0,-999.0,-999,-99.99,,,-99.99,,2013-05-08 21:24:00,
2013-05-08 22:31:00,44.0,-99.9,28.49,West,270,8.0,-999.0,-999,-99.99,,,-99.99,,2013-05-08 21:31:00,
2013-05-08 22:38:00,43.9,-99.9,28.49,NNW,337,8.0,-999.0,-999,-99.99,,,-99.99,,2013-05-08 21:38:00,
2013-05-08 22:44:00,43.9,-99.9,28.49,West,270,7.0,-999.0,-999,-99.99,,,-99.99,,2013-05-08 21:44:00,
2013-05-08 22:50:00,43.8,-99.9,28.50,WNW,292,7.0,-999.0,-999,-99.99,,,-99.99,,2013-05-08 21:50:00,
2013-05-08 22:56:00,43.8,-99.9,28.50,WSW,247,7.0,-999.0,-999,-99.99,,,-99.99,,2013-05-08 21:56:00,
2013-05-08 23:03:00,43.6,-99.9,28.49,West,270,5.0,-999.0,-999,-99.99,,,-99.99,,2013-05-08 22:03:00,
2013-05-08 23:09:00,43.5,-99.9,28.50,NW,315,6.0,-999.0,-999,-99.99,,,-99.99,,2013-05-08 22:09:00,
2013-05-08 23:15:00,43.7,-99.9,28.50,SW,225,5.0,-999.0,-999,-99.99,,,-99.99,,2013-05-08 22:15:00,
2013-05-08 23:22:00,43.9,-99.9,28.50,WSW,247,5.0,-999.0,-999,-99.99,,,-99.99,,2013-05-08 22:22:00,
2013-05-08 23:28:00,44.2,-99.9,28.50,SSW,202,5.0,-999.0,-999,-99.99,,,-99.99,,2013-05-08 22:28:00,
2013-05-08 23:34:00,44.3,-99.9,28.50,WNW,292,6.0,-999.0,-999,-99.99,,,-99.99,,2013-05-08 22:34:00,
2013-05-08 23:41:00,44.3,-99.9,28.50,West,270,7.0,-999.0,-999,-99.99,,,-99.99,,2013-05-08 22:41:00,
2013-05-08 23:47:00,44.5,-99.9,28.50,WSW,247,5.0,-999.0,-999,-99.99,,,-99.99,,2013-05-08 22:47:00,
2013-05-08 23:53:00,44.4,-99.9,28.50,WSW,247,6.0,-999.0,-999,-99.99,,,-99.99,,2013-05-08 22:53:00,